owner,sensor,date,latitude,longitude,air_pressure(mBar),qcFlag 
TABS,ioos:station:wmo:42046:1,2012-03-01T00:00:00Z,27.8903,-94.0367,1016.02,11111222 
TABS,ioos:station:wmo:42046:1,2012-03-01T00:30:00Z,27.8903,-94.0367,1016.03,11111222 
TABS,ioos:station:wmo:42046:1,2012-03-01T01:00:00Z,27.8903,-94.0367,1015.83,11111222 
TABS,ioos:station:wmo:42046:1,2012-03-01T01:30:00Z,27.8903,-94.0367,1016.03,11111222 
TABS,ioos:station:wmo:42046:1,2012-03-01T02:00:00Z,27.8903,-94.0367,1016.17,11111222 
TABS,ioos:station:wmo:42046:1,2012-03-01T02:30:00Z,27.8903,-94.0367,1016.32,11111222 
TABS,ioos:station:wmo:42046:1,2012-03-01T03:00:00Z,27.8903,-94.0367,1016.45,11111222 
TABS,ioos:station:wmo:42046:1,2012-03-01T03:30:00Z,27.8903,-94.0367,1016.37,11111222 
TABS,ioos:station:wmo:42046:1,2012-03-01T04:00:00Z,27.8903,-94.0367,1016.04,11111222 
TABS,ioos:station:wmo:42046:1,2012-03-01T04:30:00Z,27.8903,-94.0367,1015.8,11111222 
TABS,ioos:station:wmo:42046:1,2012-03-01T05:00:00Z,27.8903,-94.0367,1015.81,11111222 
TABS,ioos:station:wmo:42046:1,2012-03-01T05:30:00Z,27.8903,-94.0367,1015.31,11111222 
TABS,ioos:station:wmo:42046:1,2012-03-01T06:00:00Z,27.8903,-94.0367,1015.16,11111222 
TABS,ioos:station:wmo:42046:1,2012-03-01T06:30:00Z,27.8903,-94.0367,1015.32,11111222 
TABS,ioos:station:wmo:42046:1,2012-03-01T07:00:00Z,27.8903,-94.0367,1015.7,11111222 
TABS,ioos:station:wmo:42046:1,2012-03-01T07:30:00Z,27.8903,-94.0367,1015.2,11111222 
TABS,ioos:station:wmo:42046:1,2012-03-01T08:00:00Z,27.8903,-94.0367,1014.98,11111222 
TABS,ioos:station:wmo:42046:1,2012-03-01T08:30:00Z,27.8903,-94.0367,1014.83,11111222 
TABS,ioos:station:wmo:42046:1,2012-03-01T09:00:00Z,27.8903,-94.0367,1014.66,11111222 
TABS,ioos:station:wmo:42046:1,2012-03-01T09:30:00Z,27.8903,-94.0367,1014.47,11111222 
TABS,ioos:station:wmo:42046:1,2012-03-01T10:00:00Z,27.8903,-94.0367,1014.61,11111222 
TABS,ioos:station:wmo:42046:1,2012-03-01T10:30:00Z,27.8903,-94.0367,1014.58,11111222 
TABS,ioos:station:wmo:42046:1,2012-03-01T11:00:00Z,27.8903,-94.0367,1014.52,11111222 
TABS,ioos:station:wmo:42046:1,2012-03-01T11:30:00Z,27.8903,-94.0367,1014.26,11111222 
TABS,ioos:station:wmo:42046:1,2012-03-01T12:00:00Z,27.8903,-94.0367,1014.62,11111222 
TABS,ioos:station:wmo:42046:1,2012-03-01T12:30:00Z,27.8903,-94.0367,1014.75,11111222 
TABS,ioos:station:wmo:42046:1,2012-03-01T13:00:00Z,27.8903,-94.0367,1015.03,11111222 
TABS,ioos:station:wmo:42046:1,2012-03-01T13:30:00Z,27.8903,-94.0367,1014.98,11111222 
TABS,ioos:station:wmo:42046:1,2012-03-01T14:00:00Z,27.8903,-94.0367,1015.3,11111222 
TABS,ioos:station:wmo:42046:1,2012-03-01T14:30:00Z,27.8903,-94.0367,1015.74,11111222 
TABS,ioos:station:wmo:42046:1,2012-03-01T15:00:00Z,27.8903,-94.0367,1015.85,11111222 
TABS,ioos:station:wmo:42046:1,2012-03-01T15:30:00Z,27.8903,-94.0367,1015.97,11111222 
TABS,ioos:station:wmo:42046:1,2012-03-01T16:00:00Z,27.8903,-94.0367,1015.8,11111222 
TABS,ioos:station:wmo:42046:1,2012-03-01T16:30:00Z,27.8903,-94.0367,1015.91,11111222 
TABS,ioos:station:wmo:42046:1,2012-03-01T17:00:00Z,27.8903,-94.0367,1015.86,11111222 
TABS,ioos:station:wmo:42046:1,2012-03-01T17:30:00Z,27.8903,-94.0367,1015.8,11111222 
TABS,ioos:station:wmo:42046:1,2012-03-01T18:00:00Z,27.8903,-94.0367,1015.05,11111222 
TABS,ioos:station:wmo:42046:1,2012-03-01T18:30:00Z,27.8903,-94.0367,1014.5,11111222 
TABS,ioos:station:wmo:42046:1,2012-03-01T19:00:00Z,27.8903,-94.0367,1014.02,11111222 
TABS,ioos:station:wmo:42046:1,2012-03-01T19:30:00Z,27.8903,-94.0367,1013.6,11111222 
TABS,ioos:station:wmo:42046:1,2012-03-01T20:00:00Z,27.8903,-94.0367,1012.9,11111222 
TABS,ioos:station:wmo:42046:1,2012-03-01T20:30:00Z,27.8903,-94.0367,1012.52,11111222 
TABS,ioos:station:wmo:42046:1,2012-03-01T21:00:00Z,27.8903,-94.0367,1012.02,11111222 
TABS,ioos:station:wmo:42046:1,2012-03-01T21:30:00Z,27.8903,-94.0367,1011.83,11111222 
TABS,ioos:station:wmo:42046:1,2012-03-01T22:00:00Z,27.8903,-94.0367,1011.7,11111222 
TABS,ioos:station:wmo:42046:1,2012-03-01T22:30:00Z,27.8903,-94.0367,1011.56,11111222 
TABS,ioos:station:wmo:42046:1,2012-03-01T23:00:00Z,27.8903,-94.0367,1011.19,11111222 
TABS,ioos:station:wmo:42046:1,2012-03-01T23:30:00Z,27.8903,-94.0367,1011.29,11111222 
TABS,ioos:station:wmo:42046:1,2012-03-02T00:00:00Z,27.8903,-94.0367,1011.19,11111222 
TABS,ioos:station:wmo:42046:1,2012-03-02T00:30:00Z,27.8903,-94.0367,1011.2,11111222 
TABS,ioos:station:wmo:42046:1,2012-03-02T01:00:00Z,27.8903,-94.0367,1010.94,11111222 
TABS,ioos:station:wmo:42046:1,2012-03-02T01:30:00Z,27.8903,-94.0367,1011.28,11111222 
TABS,ioos:station:wmo:42046:1,2012-03-02T02:00:00Z,27.8903,-94.0367,1010.78,11111222 
TABS,ioos:station:wmo:42046:1,2012-03-02T02:30:00Z,27.8903,-94.0367,1010.8,11111222 
TABS,ioos:station:wmo:42046:1,2012-03-02T03:00:00Z,27.8903,-94.0367,1010.67,11111222 
TABS,ioos:station:wmo:42046:1,2012-03-02T03:30:00Z,27.8903,-94.0367,1010.56,11111222 
TABS,ioos:station:wmo:42046:1,2012-03-02T04:00:00Z,27.8903,-94.0367,1010.47,11111222 
TABS,ioos:station:wmo:42046:1,2012-03-02T04:30:00Z,27.8903,-94.0367,1010.27,11111222 
TABS,ioos:station:wmo:42046:1,2012-03-02T05:00:00Z,27.8903,-94.0367,1010.26,11111222 
TABS,ioos:station:wmo:42046:1,2012-03-02T05:30:00Z,27.8903,-94.0367,1010.62,11111222 
TABS,ioos:station:wmo:42046:1,2012-03-02T06:00:00Z,27.8903,-94.0367,1009.96,11111222 
TABS,ioos:station:wmo:42046:1,2012-03-02T06:30:00Z,27.8903,-94.0367,1009.79,11111222 
TABS,ioos:station:wmo:42046:1,2012-03-02T07:00:00Z,27.8903,-94.0367,1009.32,11111222 
TABS,ioos:station:wmo:42046:1,2012-03-02T07:30:00Z,27.8903,-94.0367,1009.16,11111222 
TABS,ioos:station:wmo:42046:1,2012-03-02T08:00:00Z,27.8903,-94.0367,1008.99,11111222 
TABS,ioos:station:wmo:42046:1,2012-03-02T08:30:00Z,27.8903,-94.0367,1008.6,11111222 
TABS,ioos:station:wmo:42046:1,2012-03-02T09:00:00Z,27.8903,-94.0367,1007.91,11111222 
TABS,ioos:station:wmo:42046:1,2012-03-02T09:30:00Z,27.8903,-94.0367,1007.99,11111222 
TABS,ioos:station:wmo:42046:1,2012-03-02T10:00:00Z,27.8903,-94.0367,1007.83,11111222 
TABS,ioos:station:wmo:42046:1,2012-03-02T10:30:00Z,27.8903,-94.0367,1007.95,11111222 
TABS,ioos:station:wmo:42046:1,2012-03-02T11:00:00Z,27.8903,-94.0367,1008.62,11111222 
TABS,ioos:station:wmo:42046:1,2012-03-02T11:30:00Z,27.8903,-94.0367,1008.83,11111222 
TABS,ioos:station:wmo:42046:1,2012-03-02T12:00:00Z,27.8903,-94.0367,1008.68,11111222 
TABS,ioos:station:wmo:42046:1,2012-03-02T12:30:00Z,27.8903,-94.0367,1008.53,11111222 
TABS,ioos:station:wmo:42046:1,2012-03-02T13:00:00Z,27.8903,-94.0367,1008.82,11111222 
TABS,ioos:station:wmo:42046:1,2012-03-02T13:30:00Z,27.8903,-94.0367,1008.47,11111222 
TABS,ioos:station:wmo:42046:1,2012-03-02T14:00:00Z,27.8903,-94.0367,1009.08,11111222 
TABS,ioos:station:wmo:42046:1,2012-03-02T14:30:00Z,27.8903,-94.0367,1009.0,11111222 
TABS,ioos:station:wmo:42046:1,2012-03-02T15:00:00Z,27.8903,-94.0367,1009.1,11111222 
TABS,ioos:station:wmo:42046:1,2012-03-02T15:30:00Z,27.8903,-94.0367,1009.34,11111222 
TABS,ioos:station:wmo:42046:1,2012-03-02T16:00:00Z,27.8903,-94.0367,1009.41,11111222 
TABS,ioos:station:wmo:42046:1,2012-03-02T16:30:00Z,27.8903,-94.0367,1009.35,11111222 
TABS,ioos:station:wmo:42046:1,2012-03-02T17:00:00Z,27.8903,-94.0367,1009.09,11111222 
TABS,ioos:station:wmo:42046:1,2012-03-02T17:30:00Z,27.8903,-94.0367,1008.78,11111222 
TABS,ioos:station:wmo:42046:1,2012-03-02T18:00:00Z,27.8903,-94.0367,1008.36,11111222 
TABS,ioos:station:wmo:42046:1,2012-03-02T18:30:00Z,27.8903,-94.0367,1008.29,11111222 
TABS,ioos:station:wmo:42046:1,2012-03-02T19:00:00Z,27.8903,-94.0367,1007.94,11111222 
TABS,ioos:station:wmo:42046:1,2012-03-02T19:30:00Z,27.8903,-94.0367,1007.61,11111222 
TABS,ioos:station:wmo:42046:1,2012-03-02T20:00:00Z,27.8903,-94.0367,1007.73,11111222 
TABS,ioos:station:wmo:42046:1,2012-03-02T20:30:00Z,27.8903,-94.0367,1007.32,11111222 
TABS,ioos:station:wmo:42046:1,2012-03-02T21:00:00Z,27.8903,-94.0367,1007.38,11111222 
TABS,ioos:station:wmo:42046:1,2012-03-02T21:30:00Z,27.8903,-94.0367,1007.41,11111222 
TABS,ioos:station:wmo:42046:1,2012-03-02T22:00:00Z,27.8903,-94.0367,1007.2,11111222 
TABS,ioos:station:wmo:42046:1,2012-03-02T22:30:00Z,27.8903,-94.0367,1007.15,11111222 
TABS,ioos:station:wmo:42046:1,2012-03-02T23:00:00Z,27.8903,-94.0367,1007.09,11111222 
TABS,ioos:station:wmo:42046:1,2012-03-02T23:30:00Z,27.8903,-94.0367,1007.19,11111222 
TABS,ioos:station:wmo:42046:1,2012-03-03T00:00:00Z,27.8903,-94.0367,1007.17,11111222 
TABS,ioos:station:wmo:42046:1,2012-03-03T00:30:00Z,27.8903,-94.0367,1007.32,11111222 
TABS,ioos:station:wmo:42046:1,2012-03-03T01:00:00Z,27.8903,-94.0367,1007.24,11111222 
TABS,ioos:station:wmo:42046:1,2012-03-03T01:30:00Z,27.8903,-94.0367,1007.51,11111222 
TABS,ioos:station:wmo:42046:1,2012-03-03T02:00:00Z,27.8903,-94.0367,1007.85,11111222 
TABS,ioos:station:wmo:42046:1,2012-03-03T02:30:00Z,27.8903,-94.0367,1007.88,11111222 
TABS,ioos:station:wmo:42046:1,2012-03-03T03:00:00Z,27.8903,-94.0367,1008.22,11111222 
TABS,ioos:station:wmo:42046:1,2012-03-03T03:30:00Z,27.8903,-94.0367,1008.08,11111222 
TABS,ioos:station:wmo:42046:1,2012-03-03T04:00:00Z,27.8903,-94.0367,1008.45,11111222 
TABS,ioos:station:wmo:42046:1,2012-03-03T04:30:00Z,27.8903,-94.0367,1008.0,11111222 
TABS,ioos:station:wmo:42046:1,2012-03-03T05:00:00Z,27.8903,-94.0367,1008.07,11111222 
TABS,ioos:station:wmo:42046:1,2012-03-03T05:30:00Z,27.8903,-94.0367,1007.73,11111222 
TABS,ioos:station:wmo:42046:1,2012-03-03T06:00:00Z,27.8903,-94.0367,1007.45,11111222 
TABS,ioos:station:wmo:42046:1,2012-03-03T06:30:00Z,27.8903,-94.0367,1007.41,11111222 
TABS,ioos:station:wmo:42046:1,2012-03-03T07:00:00Z,27.8903,-94.0367,1007.12,11111222 
TABS,ioos:station:wmo:42046:1,2012-03-03T07:30:00Z,27.8903,-94.0367,1006.76,11111222 
TABS,ioos:station:wmo:42046:1,2012-03-03T08:00:00Z,27.8903,-94.0367,1006.68,11111222 
TABS,ioos:station:wmo:42046:1,2012-03-03T08:30:00Z,27.8903,-94.0367,1006.48,11111222 
TABS,ioos:station:wmo:42046:1,2012-03-03T09:00:00Z,27.8903,-94.0367,1005.96,11111222 
TABS,ioos:station:wmo:42046:1,2012-03-03T09:30:00Z,27.8903,-94.0367,1005.73,11111222 
TABS,ioos:station:wmo:42046:1,2012-03-03T10:00:00Z,27.8903,-94.0367,1005.59,11111222 
TABS,ioos:station:wmo:42046:1,2012-03-03T10:30:00Z,27.8903,-94.0367,1006.25,11111222 
TABS,ioos:station:wmo:42046:1,2012-03-03T11:00:00Z,27.8903,-94.0367,1006.93,11111222 
TABS,ioos:station:wmo:42046:1,2012-03-03T11:30:00Z,27.8903,-94.0367,1007.09,11111222 
TABS,ioos:station:wmo:42046:1,2012-03-03T12:00:00Z,27.8903,-94.0367,1007.19,11111222 
TABS,ioos:station:wmo:42046:1,2012-03-03T12:30:00Z,27.8903,-94.0367,1007.67,11111222 
TABS,ioos:station:wmo:42046:1,2012-03-03T13:00:00Z,27.8903,-94.0367,1008.04,11111222 
TABS,ioos:station:wmo:42046:1,2012-03-03T13:30:00Z,27.8903,-94.0367,1008.28,11111222 
TABS,ioos:station:wmo:42046:1,2012-03-03T14:00:00Z,27.8903,-94.0367,1008.71,11111222 
TABS,ioos:station:wmo:42046:1,2012-03-03T14:30:00Z,27.8903,-94.0367,1008.73,11111222 
TABS,ioos:station:wmo:42046:1,2012-03-03T15:00:00Z,27.8903,-94.0367,1009.22,11111222 
TABS,ioos:station:wmo:42046:1,2012-03-03T15:30:00Z,27.8903,-94.0367,1009.78,11111222 
TABS,ioos:station:wmo:42046:1,2012-03-03T16:00:00Z,27.8903,-94.0367,1010.35,11111222 
TABS,ioos:station:wmo:42046:1,2012-03-03T16:30:00Z,27.8903,-94.0367,1010.37,11111222 
TABS,ioos:station:wmo:42046:1,2012-03-03T17:00:00Z,27.8903,-94.0367,1010.89,11111222 
TABS,ioos:station:wmo:42046:1,2012-03-03T17:30:00Z,27.8903,-94.0367,1011.1,11111222 
TABS,ioos:station:wmo:42046:1,2012-03-03T18:00:00Z,27.8903,-94.0367,1011.69,11111222 
TABS,ioos:station:wmo:42046:1,2012-03-03T18:30:00Z,27.8903,-94.0367,1011.62,11111222 
TABS,ioos:station:wmo:42046:1,2012-03-03T19:00:00Z,27.8903,-94.0367,1011.47,11111222 
TABS,ioos:station:wmo:42046:1,2012-03-03T19:30:00Z,27.8903,-94.0367,1011.45,11111222 
TABS,ioos:station:wmo:42046:1,2012-03-03T20:00:00Z,27.8903,-94.0367,1011.3,11111222 
TABS,ioos:station:wmo:42046:1,2012-03-03T20:30:00Z,27.8903,-94.0367,1011.67,11111222 
TABS,ioos:station:wmo:42046:1,2012-03-03T21:00:00Z,27.8903,-94.0367,1012.25,11111222 
TABS,ioos:station:wmo:42046:1,2012-03-03T21:30:00Z,27.8903,-94.0367,1012.06,11111222 
TABS,ioos:station:wmo:42046:1,2012-03-03T22:00:00Z,27.8903,-94.0367,1013.03,11111222 
TABS,ioos:station:wmo:42046:1,2012-03-03T22:30:00Z,27.8903,-94.0367,1013.33,11111222 
TABS,ioos:station:wmo:42046:1,2012-03-03T23:00:00Z,27.8903,-94.0367,1013.81,11111222 
TABS,ioos:station:wmo:42046:1,2012-03-03T23:30:00Z,27.8903,-94.0367,1014.58,11111222 
TABS,ioos:station:wmo:42046:1,2012-03-04T00:00:00Z,27.8903,-94.0367,1015.18,11111222 
TABS,ioos:station:wmo:42046:1,2012-03-04T00:30:00Z,27.8903,-94.0367,1015.99,11111222 
TABS,ioos:station:wmo:42046:1,2012-03-04T01:00:00Z,27.8903,-94.0367,1017.04,11111222 
TABS,ioos:station:wmo:42046:1,2012-03-04T01:30:00Z,27.8903,-94.0367,1017.52,11111222 
TABS,ioos:station:wmo:42046:1,2012-03-04T02:00:00Z,27.8903,-94.0367,1017.79,11111222 
TABS,ioos:station:wmo:42046:1,2012-03-04T02:30:00Z,27.8903,-94.0367,1019.16,11111222 
TABS,ioos:station:wmo:42046:1,2012-03-04T03:00:00Z,27.8903,-94.0367,1019.24,11111222 
TABS,ioos:station:wmo:42046:1,2012-03-04T03:30:00Z,27.8903,-94.0367,1019.59,11111222 
TABS,ioos:station:wmo:42046:1,2012-03-04T04:00:00Z,27.8903,-94.0367,1020.44,11111222 
TABS,ioos:station:wmo:42046:1,2012-03-04T04:30:00Z,27.8903,-94.0367,1020.92,11111222 
TABS,ioos:station:wmo:42046:1,2012-03-04T05:00:00Z,27.8903,-94.0367,1021.63,11111222 
TABS,ioos:station:wmo:42046:1,2012-03-04T05:30:00Z,27.8903,-94.0367,1022.04,11111222 
TABS,ioos:station:wmo:42046:1,2012-03-04T06:00:00Z,27.8903,-94.0367,1021.69,11111222 
TABS,ioos:station:wmo:42046:1,2012-03-04T06:30:00Z,27.8903,-94.0367,1022.16,11111222 
TABS,ioos:station:wmo:42046:1,2012-03-04T07:00:00Z,27.8903,-94.0367,1022.03,11111222 
TABS,ioos:station:wmo:42046:1,2012-03-04T07:30:00Z,27.8903,-94.0367,1022.34,11111222 
TABS,ioos:station:wmo:42046:1,2012-03-04T08:00:00Z,27.8903,-94.0367,1021.71,11111222 
TABS,ioos:station:wmo:42046:1,2012-03-04T08:30:00Z,27.8903,-94.0367,1021.75,11111222 
TABS,ioos:station:wmo:42046:1,2012-03-04T09:00:00Z,27.8903,-94.0367,1021.66,11111222 
TABS,ioos:station:wmo:42046:1,2012-03-04T09:30:00Z,27.8903,-94.0367,1021.76,11111222 
TABS,ioos:station:wmo:42046:1,2012-03-04T10:00:00Z,27.8903,-94.0367,1021.68,11111222 
TABS,ioos:station:wmo:42046:1,2012-03-04T10:30:00Z,27.8903,-94.0367,1021.59,11111222 
TABS,ioos:station:wmo:42046:1,2012-03-04T11:00:00Z,27.8903,-94.0367,1022.21,11111222 
TABS,ioos:station:wmo:42046:1,2012-03-04T11:30:00Z,27.8903,-94.0367,1022.41,11111222 
TABS,ioos:station:wmo:42046:1,2012-03-04T12:00:00Z,27.8903,-94.0367,1022.77,11111222 
TABS,ioos:station:wmo:42046:1,2012-03-04T12:30:00Z,27.8903,-94.0367,1023.13,11111222 
TABS,ioos:station:wmo:42046:1,2012-03-04T13:00:00Z,27.8903,-94.0367,1023.31,11111222 
TABS,ioos:station:wmo:42046:1,2012-03-04T13:30:00Z,27.8903,-94.0367,1024.12,11111222 
TABS,ioos:station:wmo:42046:1,2012-03-04T14:00:00Z,27.8903,-94.0367,1024.81,11111222 
TABS,ioos:station:wmo:42046:1,2012-03-04T14:30:00Z,27.8903,-94.0367,1025.24,11111222 
TABS,ioos:station:wmo:42046:1,2012-03-04T15:00:00Z,27.8903,-94.0367,1025.73,11111222 
TABS,ioos:station:wmo:42046:1,2012-03-04T15:30:00Z,27.8903,-94.0367,1025.77,11111222 
TABS,ioos:station:wmo:42046:1,2012-03-04T16:00:00Z,27.8903,-94.0367,1026.04,11111222 
TABS,ioos:station:wmo:42046:1,2012-03-04T16:30:00Z,27.8903,-94.0367,1026.19,11111222 
TABS,ioos:station:wmo:42046:1,2012-03-04T17:00:00Z,27.8903,-94.0367,1026.22,11111222 
TABS,ioos:station:wmo:42046:1,2012-03-04T17:30:00Z,27.8903,-94.0367,1026.17,11111222 
TABS,ioos:station:wmo:42046:1,2012-03-04T18:00:00Z,27.8903,-94.0367,1026.0,11111222 
TABS,ioos:station:wmo:42046:1,2012-03-04T18:30:00Z,27.8903,-94.0367,1025.57,11111222 
TABS,ioos:station:wmo:42046:1,2012-03-04T19:00:00Z,27.8903,-94.0367,1025.47,11111222 
TABS,ioos:station:wmo:42046:1,2012-03-04T19:30:00Z,27.8903,-94.0367,1025.23,11111222 
TABS,ioos:station:wmo:42046:1,2012-03-04T20:00:00Z,27.8903,-94.0367,1025.0,11111222 
TABS,ioos:station:wmo:42046:1,2012-03-04T20:30:00Z,27.8903,-94.0367,1024.75,11111222 
TABS,ioos:station:wmo:42046:1,2012-03-04T21:00:00Z,27.8903,-94.0367,1024.5,11111222 
TABS,ioos:station:wmo:42046:1,2012-03-04T21:30:00Z,27.8903,-94.0367,1024.39,11111222 
TABS,ioos:station:wmo:42046:1,2012-03-04T22:00:00Z,27.8903,-94.0367,1024.44,11111222 
TABS,ioos:station:wmo:42046:1,2012-03-04T22:30:00Z,27.8903,-94.0367,1024.35,11111222 
TABS,ioos:station:wmo:42046:1,2012-03-04T23:00:00Z,27.8903,-94.0367,1024.41,11111222 
TABS,ioos:station:wmo:42046:1,2012-03-04T23:30:00Z,27.8903,-94.0367,1024.56,11111222 
TABS,ioos:station:wmo:42046:1,2012-03-05T00:00:00Z,27.8903,-94.0367,1024.6,11111222 
TABS,ioos:station:wmo:42046:1,2012-03-05T00:30:00Z,27.8903,-94.0367,1024.44,11111222 
TABS,ioos:station:wmo:42046:1,2012-03-05T01:00:00Z,27.8903,-94.0367,1024.7,11111222 
TABS,ioos:station:wmo:42046:1,2012-03-05T01:30:00Z,27.8903,-94.0367,1024.8,11111222 
TABS,ioos:station:wmo:42046:1,2012-03-05T02:00:00Z,27.8903,-94.0367,1025.04,11111222 
TABS,ioos:station:wmo:42046:1,2012-03-05T02:30:00Z,27.8903,-94.0367,1025.14,11111222 
TABS,ioos:station:wmo:42046:1,2012-03-05T03:00:00Z,27.8903,-94.0367,1025.5,11111222 
TABS,ioos:station:wmo:42046:1,2012-03-05T03:30:00Z,27.8903,-94.0367,1025.78,11111222 
TABS,ioos:station:wmo:42046:1,2012-03-05T04:00:00Z,27.8903,-94.0367,1025.8,11111222 
TABS,ioos:station:wmo:42046:1,2012-03-05T04:30:00Z,27.8903,-94.0367,1025.8,11111222 
TABS,ioos:station:wmo:42046:1,2012-03-05T05:00:00Z,27.8903,-94.0367,1025.73,11111222 
TABS,ioos:station:wmo:42046:1,2012-03-05T05:30:00Z,27.8903,-94.0367,1025.59,11111222 
TABS,ioos:station:wmo:42046:1,2012-03-05T06:00:00Z,27.8903,-94.0367,1025.77,11111222 
TABS,ioos:station:wmo:42046:1,2012-03-05T06:30:00Z,27.8903,-94.0367,1025.78,11111222 
TABS,ioos:station:wmo:42046:1,2012-03-05T07:00:00Z,27.8903,-94.0367,1025.81,11111222 
TABS,ioos:station:wmo:42046:1,2012-03-05T07:30:00Z,27.8903,-94.0367,1025.82,11111222 
TABS,ioos:station:wmo:42046:1,2012-03-05T08:00:00Z,27.8903,-94.0367,1025.77,11111222 
TABS,ioos:station:wmo:42046:1,2012-03-05T08:30:00Z,27.8903,-94.0367,1025.7,11111222 
TABS,ioos:station:wmo:42046:1,2012-03-05T09:00:00Z,27.8903,-94.0367,1025.71,11111222 
TABS,ioos:station:wmo:42046:1,2012-03-05T09:30:00Z,27.8903,-94.0367,1025.73,11111222 
TABS,ioos:station:wmo:42046:1,2012-03-05T10:00:00Z,27.8903,-94.0367,1025.74,11111222 
TABS,ioos:station:wmo:42046:1,2012-03-05T10:30:00Z,27.8903,-94.0367,1025.97,11111222 
TABS,ioos:station:wmo:42046:1,2012-03-05T11:00:00Z,27.8903,-94.0367,1026.34,11111222 
TABS,ioos:station:wmo:42046:1,2012-03-05T11:30:00Z,27.8903,-94.0367,1026.65,11111222 
TABS,ioos:station:wmo:42046:1,2012-03-05T12:00:00Z,27.8903,-94.0367,1026.93,11111222 
TABS,ioos:station:wmo:42046:1,2012-03-05T12:30:00Z,27.8903,-94.0367,1027.41,11111222 
TABS,ioos:station:wmo:42046:1,2012-03-05T13:00:00Z,27.8903,-94.0367,1027.8,11111222 
TABS,ioos:station:wmo:42046:1,2012-03-05T13:30:00Z,27.8903,-94.0367,1028.08,11111222 
TABS,ioos:station:wmo:42046:1,2012-03-05T14:00:00Z,27.8903,-94.0367,1028.59,11111222 
TABS,ioos:station:wmo:42046:1,2012-03-05T14:30:00Z,27.8903,-94.0367,1029.01,11111222 
TABS,ioos:station:wmo:42046:1,2012-03-05T15:00:00Z,27.8903,-94.0367,1029.19,11111222 
TABS,ioos:station:wmo:42046:1,2012-03-05T15:30:00Z,27.8903,-94.0367,1029.59,11111222 
TABS,ioos:station:wmo:42046:1,2012-03-05T16:00:00Z,27.8903,-94.0367,1029.7,11111222 
TABS,ioos:station:wmo:42046:1,2012-03-05T16:30:00Z,27.8903,-94.0367,1029.71,11111222 
TABS,ioos:station:wmo:42046:1,2012-03-05T17:00:00Z,27.8903,-94.0367,1029.69,11111222 
TABS,ioos:station:wmo:42046:1,2012-03-05T17:30:00Z,27.8903,-94.0367,1029.68,11111222 
TABS,ioos:station:wmo:42046:1,2012-03-05T18:00:00Z,27.8903,-94.0367,1029.6,11111222 
TABS,ioos:station:wmo:42046:1,2012-03-05T18:30:00Z,27.8903,-94.0367,1029.27,11111222 
TABS,ioos:station:wmo:42046:1,2012-03-05T19:00:00Z,27.8903,-94.0367,1028.82,11111222 
TABS,ioos:station:wmo:42046:1,2012-03-05T19:30:00Z,27.8903,-94.0367,1028.49,11111222 
TABS,ioos:station:wmo:42046:1,2012-03-05T20:00:00Z,27.8903,-94.0367,1028.1,11111222 
TABS,ioos:station:wmo:42046:1,2012-03-05T20:30:00Z,27.8903,-94.0367,1027.86,11111222 
TABS,ioos:station:wmo:42046:1,2012-03-05T21:00:00Z,27.8903,-94.0367,1027.69,11111222 
TABS,ioos:station:wmo:42046:1,2012-03-05T21:30:00Z,27.8903,-94.0367,1027.7,11111222 
TABS,ioos:station:wmo:42046:1,2012-03-05T22:00:00Z,27.8903,-94.0367,1027.63,11111222 
TABS,ioos:station:wmo:42046:1,2012-03-05T22:30:00Z,27.8903,-94.0367,1027.5,11111222 
TABS,ioos:station:wmo:42046:1,2012-03-05T23:00:00Z,27.8903,-94.0367,1027.34,11111222 
TABS,ioos:station:wmo:42046:1,2012-03-05T23:30:00Z,27.8903,-94.0367,1027.33,11111222 
TABS,ioos:station:wmo:42046:1,2012-03-06T00:00:00Z,27.8903,-94.0367,1027.3,11111222 
TABS,ioos:station:wmo:42046:1,2012-03-06T00:30:00Z,27.8903,-94.0367,1027.4,11111222 
TABS,ioos:station:wmo:42046:1,2012-03-06T01:00:00Z,27.8903,-94.0367,1027.25,11111222 
TABS,ioos:station:wmo:42046:1,2012-03-06T01:30:00Z,27.8903,-94.0367,1027.32,11111222 
TABS,ioos:station:wmo:42046:1,2012-03-06T02:00:00Z,27.8903,-94.0367,1027.6,11111222 
TABS,ioos:station:wmo:42046:1,2012-03-06T02:30:00Z,27.8903,-94.0367,1027.71,11111222 
TABS,ioos:station:wmo:42046:1,2012-03-06T03:00:00Z,27.8903,-94.0367,1027.86,11111222 
TABS,ioos:station:wmo:42046:1,2012-03-06T03:30:00Z,27.8903,-94.0367,1027.7,11111222 
TABS,ioos:station:wmo:42046:1,2012-03-06T04:00:00Z,27.8903,-94.0367,1027.74,11111222 
TABS,ioos:station:wmo:42046:1,2012-03-06T04:30:00Z,27.8903,-94.0367,1027.61,11111222 
TABS,ioos:station:wmo:42046:1,2012-03-06T05:00:00Z,27.8903,-94.0367,1027.19,11111222 
TABS,ioos:station:wmo:42046:1,2012-03-06T05:30:00Z,27.8903,-94.0367,1027.28,11111222 
TABS,ioos:station:wmo:42046:1,2012-03-06T06:00:00Z,27.8903,-94.0367,1027.04,11111222 
TABS,ioos:station:wmo:42046:1,2012-03-06T06:30:00Z,27.8903,-94.0367,1026.63,11111222 
TABS,ioos:station:wmo:42046:1,2012-03-06T07:00:00Z,27.8903,-94.0367,1026.41,11111222 
TABS,ioos:station:wmo:42046:1,2012-03-06T07:30:00Z,27.8903,-94.0367,1026.01,11111222 
TABS,ioos:station:wmo:42046:1,2012-03-06T08:00:00Z,27.8903,-94.0367,1025.7,11111222 
TABS,ioos:station:wmo:42046:1,2012-03-06T08:30:00Z,27.8903,-94.0367,1025.46,11111222 
TABS,ioos:station:wmo:42046:1,2012-03-06T09:00:00Z,27.8903,-94.0367,1024.99,11111222 
TABS,ioos:station:wmo:42046:1,2012-03-06T09:30:00Z,27.8903,-94.0367,1024.89,11111222 
TABS,ioos:station:wmo:42046:1,2012-03-06T10:00:00Z,27.8903,-94.0367,1024.45,11111222 
TABS,ioos:station:wmo:42046:1,2012-03-06T10:30:00Z,27.8903,-94.0367,1024.33,11111222 
TABS,ioos:station:wmo:42046:1,2012-03-06T11:00:00Z,27.8903,-94.0367,1024.57,11111222 
TABS,ioos:station:wmo:42046:1,2012-03-06T11:30:00Z,27.8903,-94.0367,1024.72,11111222 
TABS,ioos:station:wmo:42046:1,2012-03-06T12:00:00Z,27.8903,-94.0367,1024.63,11111222 
TABS,ioos:station:wmo:42046:1,2012-03-06T12:30:00Z,27.8903,-94.0367,1024.72,11111222 
TABS,ioos:station:wmo:42046:1,2012-03-06T13:00:00Z,27.8903,-94.0367,1024.82,11111222 
TABS,ioos:station:wmo:42046:1,2012-03-06T13:30:00Z,27.8903,-94.0367,1024.76,11111222 
TABS,ioos:station:wmo:42046:1,2012-03-06T14:00:00Z,27.8903,-94.0367,1025.19,11111222 
TABS,ioos:station:wmo:42046:1,2012-03-06T14:30:00Z,27.8903,-94.0367,1025.43,11111222 
TABS,ioos:station:wmo:42046:1,2012-03-06T15:00:00Z,27.8903,-94.0367,1025.76,11111222 
TABS,ioos:station:wmo:42046:1,2012-03-06T15:30:00Z,27.8903,-94.0367,1025.76,11111222 
TABS,ioos:station:wmo:42046:1,2012-03-06T16:00:00Z,27.8903,-94.0367,1025.88,11111222 
TABS,ioos:station:wmo:42046:1,2012-03-06T16:30:00Z,27.8903,-94.0367,1025.81,11111222 
TABS,ioos:station:wmo:42046:1,2012-03-06T17:00:00Z,27.8903,-94.0367,1025.8,11111222 
TABS,ioos:station:wmo:42046:1,2012-03-06T17:30:00Z,27.8903,-94.0367,1025.59,11111222 
TABS,ioos:station:wmo:42046:1,2012-03-06T18:00:00Z,27.8903,-94.0367,1025.38,11111222 
TABS,ioos:station:wmo:42046:1,2012-03-06T18:30:00Z,27.8903,-94.0367,1024.8,11111222 